STARLINK-38055, 69704

Orbit data source: Space-Track

STARLINK-38055, 69704 is a payload satellite owned by SpaceX/Seattle (US) in SSO that was launched on Sun, 28 Jun 2026 UTC via an FALCON 9 launch vehicle from the Air Force Western Test Range (AFWTR). Payload-class satellites include a variety of spacecraft equipped with specific instruments for various scientific and technological missions. These include communications satellites like Starlink; space stations such as the ISS; scientific satellites like the Hubble; Earth observation satellites from companies like Planet Labs, Umbra, and HawkEye 360; GPS; miniature CubeSats for education and research; and military/defense satellites.

Loading next visibility...
Identifier
69704, 2026-147A
Orbit
SSO
Country
Flag of USUS
Related business
Manufacturer
SpaceX/Seattle
Mission
Operational Commercial Communications
Bus & Motor
STARLINK V2MO, Unknown motor
Mass
575 kg wet, ~530 kg dry
Launch date (UTC)
2026-06-28 (2 months ago)
Launch vehicle
FALCON 9
Launch site
Air Force Western Test Range (AFWTR)
Object type
Payload
Rocket body
Debris
Shape & HBR
Box + 1 Pan, 17.7 m
Radar Cross Section
41.120 m², Large (>1 m²)

Expand to show TLE details & history
Last TLE update: 12 hours ago

TLE from 12 hours ago
0 STARLINK-38055
1 69704U 26147A   26237.10528447  .00023620  00000-0  73228-3 0  9995
2 69704  97.2842 273.7678 0000376  69.2593 290.8690 15.33419468 10188
Epoch: 2026-08-25T02:31Z
TLE epoch observation values (Epoch: 2026-08-25T02:31:36.578Z)
Latitude
-0.00001°
Longitude
-97.51202°
Altitude
468.639 km
Speed
7.632 km/s
True Right ascension
18h 15m 04s
True Declination
0° 00' 00"
Sunlit
Object was in full shadow at epoch
Visualization orbit readout
Latitude
Unknown
Longitude
Unknown
Altitude
Unknown
Speed
Unknown
Apparent Right ascension
Unknown
Apparent Declination
Unknown
Sunlit
N/A
Visualization observer readout
Local Sidereal Time
05:19:29
Azimuth
Unknown
Elevation
Unknown
Doppler factor
Unknown
Orbital elements
Apogee altitude
462.819 km
Perigee altitude
462.305 km
Semi-major axis
6,840.699 km
Eccentricity
0.00004
Inclination
97.2842°
RAAN
273.7678°
Arg. of periapsis
69.2593°
True anomaly
290.86497°
Mean anomaly
290.869°
Eccentric anomaly
290.86699°
Mean motion
3.83612 °/min
Orbital period
93.84 mins
BSTAR
0.00073228
Loading maneuver chart data...
Computing Atmospheric mass density...
Loading historical data...
Loading historical data...
Loading historical data...
Loading historical data...
Loading historical data...
Loading historical data...
Loading historical data...

Documentation

Showing up to 5 results
|